Wetterdaten: Samstag, 06.04.2013
Datum Zeit Temp. Auen Feucht Auen Luftdruck Regen Richtung Richtung Windben
06.04.2013 00:00 2,3 C 91 % 1010,7 hPa 0,0 mm W 263 1,6 km/h (1 Bft)
06.04.2013 00:05 2,3 C 91 % 1010,7 hPa 0,0 mm W 263 3,2 km/h (1 Bft)
06.04.2013 00:10 2,3 C 91 % 1010,8 hPa 0,0 mm W 263 3,2 km/h (1 Bft)
06.04.2013 00:15 2,3 C 91 % 1010,8 hPa 0,0 mm W 263 1,6 km/h (1 Bft)
06.04.2013 00:20 2,3 C 91 % 1010,8 hPa 0,0 mm W 263 1,6 km/h (1 Bft)
06.04.2013 00:25 2,3 C 91 % 1010,9 hPa 0,0 mm W 263 3,2 km/h (1 Bft)
06.04.2013 00:30 2,3 C 91 % 1010,9 hPa 0,0 mm W 263 3,2 km/h (1 Bft)
06.04.2013 00:35 2,3 C 91 % 1011,0 hPa 0,0 mm W 263 1,6 km/h (1 Bft)
06.04.2013 00:40 2,3 C 91 % 1011,0 hPa 0,0 mm W 263 1,6 km/h (1 Bft)
06.04.2013 00:45 2,3 C 91 % 1011,0 hPa 0,0 mm W 263 3,2 km/h (1 Bft)
06.04.2013 00:50 2,3 C 91 % 1011,0 hPa 0,0 mm W 259 6,4 km/h (2 Bft)
06.04.2013 00:55 2,3 C 91 % 1011,1 hPa 0,0 mm W 275 6,4 km/h (2 Bft)
06.04.2013 01:00 2,3 C 91 % 1011,1 hPa 0,0 mm W 262 6,4 km/h (2 Bft)
06.04.2013 01:05 2,3 C 91 % 1011,1 hPa 0,0 mm W-SW 250 4,8 km/h (1 Bft)
06.04.2013 01:10 2,3 C 91 % 1011,1 hPa 0,0 mm W 263 6,4 km/h (2 Bft)
06.04.2013 01:15 2,3 C 91 % 1011,1 hPa 0,0 mm W 269 6,4 km/h (2 Bft)
06.04.2013 01:20 2,3 C 91 % 1011,1 hPa 0,0 mm W 264 3,2 km/h (1 Bft)
06.04.2013 01:25 2,3 C 91 % 1011,1 hPa 0,0 mm W 264 3,2 km/h (1 Bft)
06.04.2013 01:30 2,3 C 91 % 1011,1 hPa 0,0 mm W 265 4,8 km/h (1 Bft)
06.04.2013 01:35 2,3 C 92 % 1011,2 hPa 0,0 mm W 265 4,8 km/h (1 Bft)
06.04.2013 01:40 2,2 C 92 % 1011,2 hPa 0,0 mm W 265 3,2 km/h (1 Bft)
06.04.2013 01:45 2,2 C 92 % 1011,2 hPa 0,0 mm W-NW 298 4,8 km/h (1 Bft)
06.04.2013 01:50 2,2 C 92 % 1011,2 hPa 0,0 mm W-NW 298 3,2 km/h (1 Bft)
06.04.2013 01:55 2,2 C 92 % 1011,2 hPa 0,0 mm W-NW 298 3,2 km/h (1 Bft)
06.04.2013 02:00 2,2 C 92 % 1011,2 hPa 0,0 mm W-NW 298 1,6 km/h (1 Bft)
06.04.2013 02:05 2,2 C 92 % 1011,3 hPa 0,0 mm W-NW 298 1,6 km/h (1 Bft)
06.04.2013 02:10 2,2 C 92 % 1011,3 hPa 0,0 mm W 261 3,2 km/h (1 Bft)
06.04.2013 02:15 2,1 C 91 % 1011,4 hPa 0,0 mm W 259 3,2 km/h (1 Bft)
06.04.2013 02:20 2,1 C 91 % 1011,4 hPa 0,0 mm W-SW 258 4,8 km/h (1 Bft)
06.04.2013 02:25 2,1 C 91 % 1011,4 hPa 0,0 mm W-SW 258 4,8 km/h (1 Bft)
06.04.2013 02:30 2,1 C 91 % 1011,4 hPa 0,0 mm W 267 4,8 km/h (1 Bft)
06.04.2013 02:35 2,1 C 91 % 1011,4 hPa 0,0 mm W 263 4,8 km/h (1 Bft)
06.04.2013 02:40 2,1 C 91 % 1011,4 hPa 0,0 mm W 265 4,8 km/h (1 Bft)
06.04.2013 02:45 2,1 C 91 % 1011,4 hPa 0,0 mm W 265 4,8 km/h (1 Bft)
06.04.2013 02:50 2,1 C 91 % 1011,4 hPa 0,0 mm W 265 3,2 km/h (1 Bft)
06.04.2013 02:55 2,1 C 91 % 1011,5 hPa 0,0 mm W 267 4,8 km/h (1 Bft)
06.04.2013 03:00 2,1 C 91 % 1011,5 hPa 0,0 mm W-NW 294 4,8 km/h (1 Bft)
06.04.2013 03:05 2,1 C 91 % 1011,5 hPa 0,0 mm W 267 6,4 km/h (2 Bft)
06.04.2013 03:10 2,1 C 91 % 1011,5 hPa 0,0 mm W 274 3,2 km/h (1 Bft)
06.04.2013 03:15 2,1 C 91 % 1011,5 hPa 0,0 mm W 279 4,8 km/h (1 Bft)
06.04.2013 03:20 2,1 C 91 % 1011,5 hPa 0,0 mm W 264 6,4 km/h (2 Bft)
06.04.2013 03:25 2,1 C 91 % 1011,6 hPa 0,0 mm W-SW 255 6,4 km/h (2 Bft)
06.04.2013 03:30 2,1 C 91 % 1011,6 hPa 0,0 mm W 259 6,4 km/h (2 Bft)
06.04.2013 03:35 2,1 C 91 % 1011,6 hPa 0,0 mm W-SW 256 4,8 km/h (1 Bft)
06.04.2013 03:40 2,1 C 91 % 1011,6 hPa 0,0 mm W-NW 286 6,4 km/h (2 Bft)
06.04.2013 03:45 2,1 C 91 % 1011,7 hPa 0,0 mm W 273 6,4 km/h (2 Bft)
06.04.2013 03:50 2,1 C 91 % 1011,8 hPa 0,0 mm W 273 6,4 km/h (2 Bft)
06.04.2013 03:55 2,1 C 91 % 1011,8 hPa 0,0 mm W 273 1,6 km/h (1 Bft)
06.04.2013 04:00 2,1 C 91 % 1011,8 hPa 0,0 mm W 273 3,2 km/h (1 Bft)
06.04.2013 04:05 2,1 C 91 % 1011,9 hPa 0,0 mm W 273 1,6 km/h (1 Bft)
06.04.2013 04:10 2,1 C 91 % 1011,8 hPa 0,0 mm W 263 4,8 km/h (1 Bft)
06.04.2013 04:15 2,1 C 91 % 1011,9 hPa 0,0 mm W 263 3,2 km/h (1 Bft)
06.04.2013 04:20 2,1 C 91 % 1011,8 hPa 0,0 mm W 265 3,2 km/h (1 Bft)
06.04.2013 04:25 2,1 C 91 % 1011,9 hPa 0,0 mm W 265 3,2 km/h (1 Bft)
06.04.2013 04:30 2,1 C 91 % 1011,9 hPa 0,0 mm W 265 3,2 km/h (1 Bft)
06.04.2013 04:35 2,1 C 91 % 1011,9 hPa 0,0 mm W 265 1,6 km/h (1 Bft)
06.04.2013 04:40 2,1 C 91 % 1012,0 hPa 0,0 mm W-NW 285 3,2 km/h (1 Bft)
06.04.2013 04:45 2,1 C 91 % 1012,0 hPa 0,0 mm W-NW 284 3,2 km/h (1 Bft)
06.04.2013 04:50 2,1 C 91 % 1012,0 hPa 0,0 mm W-NW 285 3,2 km/h (1 Bft)
06.04.2013 04:55 2,1 C 91 % 1012,0 hPa 0,0 mm W-NW 285 3,2 km/h (1 Bft)
06.04.2013 05:00 2,1 C 91 % 1012,1 hPa 0,0 mm W-NW 284 3,2 km/h (1 Bft)
06.04.2013 05:05 2,1 C 91 % 1012,1 hPa 0,0 mm W-NW 285 4,8 km/h (1 Bft)
06.04.2013 05:10 2,1 C 91 % 1012,1 hPa 0,0 mm W-NW 284 3,2 km/h (1 Bft)
06.04.2013 05:15 2,1 C 91 % 1012,1 hPa 0,0 mm W-NW 285 1,6 km/h (1 Bft)
06.04.2013 05:20 2,1 C 91 % 1012,1 hPa 0,0 mm W-NW 285 1,6 km/h (1 Bft)
06.04.2013 05:25 2,1 C 91 % 1012,2 hPa 0,0 mm W-NW 284 0,0 km/h (0 Bft)
06.04.2013 05:30 2,1 C 91 % 1012,1 hPa 0,0 mm W-NW 284 0,0 km/h (0 Bft)
06.04.2013 05:35 2,1 C 91 % 1012,2 hPa 0,0 mm W-NW 284 0,0 km/h (0 Bft)
06.04.2013 05:40 2,1 C 91 % 1012,2 hPa 0,0 mm W-NW 285 0,0 km/h (0 Bft)
06.04.2013 05:45 2,1 C 91 % 1012,3 hPa 0,0 mm W-NW 285 0,0 km/h (0 Bft)
06.04.2013 05:50 2,1 C 91 % 1012,3 hPa 0,0 mm W-NW 284 1,6 km/h (1 Bft)
06.04.2013 05:55 2,1 C 91 % 1012,4 hPa 0,0 mm W-NW 285 0,0 km/h (0 Bft)
06.04.2013 06:00 2,1 C 91 % 1012,5 hPa 0,0 mm W-NW 284 1,6 km/h (1 Bft)
06.04.2013 06:05 2,1 C 91 % 1012,4 hPa 0,0 mm W-NW 284 1,6 km/h (1 Bft)
06.04.2013 06:10 2,1 C 91 % 1012,5 hPa 0,0 mm W-NW 284 1,6 km/h (1 Bft)
06.04.2013 06:15 2,1 C 91 % 1012,5 hPa 0,0 mm W-NW 284 1,6 km/h (1 Bft)
06.04.2013 06:20 2,1 C 91 % 1012,4 hPa 0,0 mm W-NW 285 0,0 km/h (0 Bft)
06.04.2013 06:25 2,1 C 91 % 1012,5 hPa 0,0 mm W-NW 284 0,0 km/h (0 Bft)
06.04.2013 06:30 2,1 C 91 % 1012,5 hPa 0,0 mm W-NW 284 1,6 km/h (1 Bft)
06.04.2013 06:35 2,1 C 91 % 1012,6 hPa 0,0 mm W-NW 284 1,6 km/h (1 Bft)
06.04.2013 06:40 2,1 C 91 % 1012,6 hPa 0,0 mm W-NW 284 1,6 km/h (1 Bft)
06.04.2013 06:45 2,1 C 91 % 1012,7 hPa 0,0 mm W-NW 285 3,2 km/h (1 Bft)
06.04.2013 06:50 2,1 C 91 % 1012,7 hPa 0,0 mm W-NW 285 3,2 km/h (1 Bft)
06.04.2013 06:55 2,1 C 91 % 1012,7 hPa 0,0 mm W-NW 285 1,6 km/h (1 Bft)
06.04.2013 07:00 2,1 C 91 % 1012,7 hPa 0,0 mm W-NW 285 0,0 km/h (0 Bft)
06.04.2013 07:05 2,1 C 91 % 1012,8 hPa 0,0 mm W-NW 285 0,0 km/h (0 Bft)
06.04.2013 07:10 2,1 C 91 % 1012,8 hPa 0,0 mm W-NW 285 0,0 km/h (0 Bft)
06.04.2013 07:15 2,1 C 91 % 1012,8 hPa 0,0 mm W-NW 284 1,6 km/h (1 Bft)
06.04.2013 07:20 2,1 C 91 % 1012,8 hPa 0,0 mm W-NW 285 0,0 km/h (0 Bft)
06.04.2013 07:25 2,1 C 91 % 1012,9 hPa 0,0 mm W-NW 284 0,0 km/h (0 Bft)
06.04.2013 07:30 2,1 C 92 % 1012,9 hPa 0,0 mm W-NW 285 0,0 km/h (0 Bft)
06.04.2013 07:35 2,1 C 92 % 1013,0 hPa 0,0 mm W-NW 284 1,6 km/h (1 Bft)
06.04.2013 07:40 2,2 C 92 % 1013,0 hPa 0,0 mm W 280 4,8 km/h (1 Bft)
06.04.2013 07:45 2,2 C 92 % 1013,0 hPa 0,0 mm W 279 4,8 km/h (1 Bft)
06.04.2013 07:50 2,2 C 92 % 1013,1 hPa 0,0 mm W 281 3,2 km/h (1 Bft)
06.04.2013 07:55 2,1 C 92 % 1013,1 hPa 0,0 mm W 267 4,8 km/h (1 Bft)
06.04.2013 08:00 2,1 C 92 % 1013,2 hPa 0,0 mm W 274 4,8 km/h (1 Bft)
06.04.2013 08:05 2,1 C 92 % 1013,3 hPa 0,0 mm W-SW 253 4,8 km/h (1 Bft)
06.04.2013 08:10 2,1 C 92 % 1013,3 hPa 0,0 mm W-SW 254 4,8 km/h (1 Bft)
06.04.2013 08:15 2,1 C 92 % 1013,4 hPa 0,0 mm W-SW 258 6,4 km/h (2 Bft)
06.04.2013 08:20 2,1 C 92 % 1013,5 hPa 0,0 mm W-SW 256 6,4 km/h (2 Bft)
06.04.2013 08:25 2,1 C 92 % 1013,5 hPa 0,0 mm W 259 6,4 km/h (2 Bft)
06.04.2013 08:30 2,1 C 92 % 1013,6 hPa 0,0 mm W 265 8,0 km/h (2 Bft)
06.04.2013 08:35 2,0 C 92 % 1013,6 hPa 0,0 mm W-SW 253 8,0 km/h (2 Bft)
06.04.2013 08:40 2,0 C 92 % 1013,6 hPa 0,0 mm W 262 8,0 km/h (2 Bft)
06.04.2013 08:45 2,0 C 92 % 1013,6 hPa 0,0 mm W-NW 287 6,4 km/h (2 Bft)
06.04.2013 08:50 1,9 C 92 % 1013,7 hPa 0,0 mm W-SW 250 8,0 km/h (2 Bft)
06.04.2013 08:55 1,9 C 92 % 1013,7 hPa 0,0 mm W 263 6,4 km/h (2 Bft)
06.04.2013 09:00 1,9 C 92 % 1013,8 hPa 0,0 mm W 263 6,4 km/h (2 Bft)
06.04.2013 09:05 1,9 C 92 % 1013,8 hPa 0,0 mm W-SW 250 9,7 km/h (2 Bft)
06.04.2013 09:10 1,9 C 92 % 1013,9 hPa 0,0 mm W-SW 250 8,0 km/h (2 Bft)
06.04.2013 09:15 1,9 C 92 % 1013,9 hPa 0,0 mm W 277 8,0 km/h (2 Bft)
06.04.2013 09:20 1,8 C 92 % 1014,0 hPa 0,0 mm W-SW 256 9,7 km/h (2 Bft)
06.04.2013 09:25 1,8 C 92 % 1014,0 hPa 0,0 mm W-SW 250 8,0 km/h (2 Bft)
06.04.2013 09:30 1,8 C 92 % 1014,1 hPa 0,0 mm W 269 8,0 km/h (2 Bft)
06.04.2013 09:35 1,8 C 92 % 1014,1 hPa 0,0 mm W 263 9,7 km/h (2 Bft)
06.04.2013 09:40 1,9 C 92 % 1014,1 hPa 0,0 mm W 275 11,3 km/h (2 Bft)
06.04.2013 09:45 2,0 C 92 % 1014,2 hPa 0,0 mm W 269 9,7 km/h (2 Bft)
06.04.2013 09:50 2,1 C 92 % 1014,2 hPa 0,0 mm W 268 8,0 km/h (2 Bft)
06.04.2013 09:55 2,1 C 92 % 1014,2 hPa 0,0 mm W-NW 284 6,4 km/h (2 Bft)
06.04.2013 10:00 2,2 C 92 % 1014,3 hPa 0,0 mm W 264 6,4 km/h (2 Bft)
06.04.2013 10:05 2,2 C 91 % 1014,3 hPa 0,0 mm W-NW 287 6,4 km/h (2 Bft)
06.04.2013 10:10 2,2 C 91 % 1014,3 hPa 0,0 mm W 276 8,0 km/h (2 Bft)
06.04.2013 10:15 2,2 C 91 % 1014,4 hPa 0,0 mm W 271 8,0 km/h (2 Bft)
06.04.2013 10:20 2,2 C 91 % 1014,5 hPa 0,0 mm W 276 8,0 km/h (2 Bft)
06.04.2013 10:25 2,2 C 91 % 1014,5 hPa 0,0 mm W-SW 246 6,4 km/h (2 Bft)
06.04.2013 10:30 2,3 C 91 % 1014,5 hPa 0,0 mm W-NW 284 6,4 km/h (2 Bft)
06.04.2013 10:35 2,3 C 91 % 1014,6 hPa 0,0 mm W 270 8,0 km/h (2 Bft)
06.04.2013 10:40 2,3 C 91 % 1014,6 hPa 0,0 mm W-NW 297 8,0 km/h (2 Bft)
06.04.2013 10:45 2,4 C 92 % 1014,7 hPa 0,0 mm W 273 6,4 km/h (2 Bft)
06.04.2013 10:50 2,5 C 91 % 1014,8 hPa 0,0 mm W-NW 283 4,8 km/h (1 Bft)
06.04.2013 10:55 2,6 C 91 % 1014,8 hPa 0,0 mm W 266 6,4 km/h (2 Bft)
06.04.2013 11:00 2,6 C 90 % 1014,9 hPa 0,0 mm W 260 8,0 km/h (2 Bft)
06.04.2013 11:05 2,7 C 90 % 1014,9 hPa 0,0 mm W 272 8,0 km/h (2 Bft)
06.04.2013 11:10 2,7 C 90 % 1015,0 hPa 0,0 mm W 275 6,4 km/h (2 Bft)
06.04.2013 11:15 2,8 C 89 % 1014,9 hPa 0,0 mm W 264 6,4 km/h (2 Bft)
06.04.2013 11:20 2,9 C 89 % 1015,0 hPa 0,0 mm W 268 8,0 km/h (2 Bft)
06.04.2013 11:25 2,9 C 88 % 1015,0 hPa 0,0 mm W 281 8,0 km/h (2 Bft)
06.04.2013 11:30 3,1 C 88 % 1015,1 hPa 0,0 mm W 266 6,4 km/h (2 Bft)
06.04.2013 11:35 3,2 C 88 % 1015,1 hPa 0,0 mm W 271 6,4 km/h (2 Bft)
06.04.2013 11:40 3,2 C 87 % 1015,1 hPa 0,0 mm W-NW 283 8,0 km/h (2 Bft)
06.04.2013 11:45 3,2 C 87 % 1015,1 hPa 0,0 mm W-SW 254 9,7 km/h (2 Bft)
06.04.2013 11:50 3,3 C 87 % 1015,0 hPa 0,0 mm W-NW 284 6,4 km/h (2 Bft)
06.04.2013 11:55 3,3 C 87 % 1015,1 hPa 0,0 mm W 266 8,0 km/h (2 Bft)
06.04.2013 12:00 3,4 C 87 % 1015,1 hPa 0,0 mm W-SW 244 8,0 km/h (2 Bft)
06.04.2013 12:05 3,4 C 86 % 1015,1 hPa 0,0 mm W 260 8,0 km/h (2 Bft)
06.04.2013 12:10 3,4 C 86 % 1015,1 hPa 0,0 mm W 269 11,3 km/h (2 Bft)
06.04.2013 12:15 3,4 C 86 % 1015,2 hPa 0,0 mm W 276 11,3 km/h (2 Bft)
06.04.2013 12:20 3,4 C 85 % 1015,2 hPa 0,0 mm W 273 12,9 km/h (3 Bft)
06.04.2013 12:25 3,5 C 86 % 1015,2 hPa 0,0 mm W-SW 246 8,0 km/h (2 Bft)
06.04.2013 12:30 3,5 C 85 % 1015,2 hPa 0,0 mm W 274 6,4 km/h (2 Bft)
06.04.2013 12:35 3,6 C 84 % 1015,3 hPa 0,0 mm W 279 6,4 km/h (2 Bft)
06.04.2013 12:40 3,6 C 84 % 1015,3 hPa 0,0 mm W-SW 254 8,0 km/h (2 Bft)
06.04.2013 12:45 3,7 C 83 % 1015,3 hPa 0,0 mm W 268 6,4 km/h (2 Bft)
06.04.2013 12:50 3,7 C 83 % 1015,4 hPa 0,0 mm W 274 4,8 km/h (1 Bft)
06.04.2013 12:55 3,8 C 83 % 1015,4 hPa 0,0 mm W 270 6,4 km/h (2 Bft)
06.04.2013 13:00 3,8 C 83 % 1015,3 hPa 0,0 mm W 265 9,7 km/h (2 Bft)
06.04.2013 13:05 3,9 C 82 % 1015,4 hPa 0,0 mm W 260 9,7 km/h (2 Bft)
06.04.2013 13:10 3,9 C 82 % 1015,4 hPa 0,0 mm W-SW 256 4,8 km/h (1 Bft)
06.04.2013 13:15 4,1 C 82 % 1015,4 hPa 0,0 mm W-SW 252 8,0 km/h (2 Bft)
06.04.2013 13:20 4,1 C 82 % 1015,5 hPa 0,0 mm W 272 6,4 km/h (2 Bft)
06.04.2013 13:25 4,1 C 81 % 1015,5 hPa 0,0 mm W 265 8,0 km/h (2 Bft)
06.04.2013 13:30 4,1 C 82 % 1015,6 hPa 0,0 mm W 271 6,4 km/h (2 Bft)
06.04.2013 13:35 4,1 C 81 % 1015,5 hPa 0,0 mm W-SW 252 8,0 km/h (2 Bft)
06.04.2013 13:40 4,0 C 81 % 1015,6 hPa 0,0 mm W 261 9,7 km/h (2 Bft)
06.04.2013 13:45 4,1 C 81 % 1015,6 hPa 0,0 mm W 266 8,0 km/h (2 Bft)
06.04.2013 13:50 4,2 C 81 % 1015,6 hPa 0,0 mm W 275 8,0 km/h (2 Bft)
06.04.2013 13:55 4,2 C 80 % 1015,6 hPa 0,0 mm W 270 6,4 km/h (2 Bft)
06.04.2013 14:00 4,2 C 79 % 1015,6 hPa 0,0 mm W 272 8,0 km/h (2 Bft)
06.04.2013 14:05 4,2 C 81 % 1015,6 hPa 0,0 mm W 263 6,4 km/h (2 Bft)
06.04.2013 14:10 4,3 C 80 % 1015,6 hPa 0,0 mm W 265 6,4 km/h (2 Bft)
06.04.2013 14:15 4,3 C 80 % 1015,7 hPa 0,0 mm W 266 6,4 km/h (2 Bft)
06.04.2013 14:20 4,3 C 80 % 1015,7 hPa 0,0 mm W 267 4,8 km/h (1 Bft)
06.04.2013 14:25 4,4 C 79 % 1015,7 hPa 0,0 mm W 259 8,0 km/h (2 Bft)
06.04.2013 14:30 4,4 C 79 % 1015,7 hPa 0,0 mm W-SW 250 6,4 km/h (2 Bft)
06.04.2013 14:35 4,3 C 79 % 1015,7 hPa 0,0 mm W-SW 250 1,6 km/h (1 Bft)
06.04.2013 14:40 4,3 C 78 % 1015,7 hPa 0,0 mm W-SW 255 6,4 km/h (2 Bft)
06.04.2013 14:45 4,3 C 79 % 1015,7 hPa 0,0 mm W 269 6,4 km/h (2 Bft)
06.04.2013 14:50 4,4 C 78 % 1015,8 hPa 0,0 mm W 262 6,4 km/h (2 Bft)
06.04.2013 14:55 4,4 C 79 % 1015,7 hPa 0,0 mm W 269 8,0 km/h (2 Bft)
06.04.2013 15:00 4,6 C 79 % 1015,7 hPa 0,0 mm W 265 4,8 km/h (1 Bft)
06.04.2013 15:05 4,6 C 78 % 1015,7 hPa 0,0 mm W 269 4,8 km/h (1 Bft)
06.04.2013 15:10 4,6 C 79 % 1015,7 hPa 0,0 mm W 275 4,8 km/h (1 Bft)
06.04.2013 15:15 4,6 C 79 % 1015,7 hPa 0,0 mm W 275 3,2 km/h (1 Bft)
06.04.2013 15:20 4,8 C 79 % 1015,7 hPa 0,0 mm W 267 4,8 km/h (1 Bft)
06.04.2013 15:25 4,8 C 76 % 1015,6 hPa 0,0 mm W 273 4,8 km/h (1 Bft)
06.04.2013 15:30 4,7 C 76 % 1015,6 hPa 0,0 mm W-SW 252 4,8 km/h (1 Bft)
06.04.2013 15:35 4,9 C 77 % 1015,5 hPa 0,0 mm W 267 6,4 km/h (2 Bft)
06.04.2013 15:40 4,9 C 76 % 1015,5 hPa 0,0 mm W 265 6,4 km/h (2 Bft)
06.04.2013 15:45 4,9 C 77 % 1015,5 hPa 0,0 mm W-NW 291 4,8 km/h (1 Bft)
06.04.2013 15:50 4,9 C 77 % 1015,5 hPa 0,0 mm W-NW 288 6,4 km/h (2 Bft)
06.04.2013 15:55 5,0 C 77 % 1015,5 hPa 0,0 mm W 270 4,8 km/h (1 Bft)
06.04.2013 16:00 5,1 C 77 % 1015,5 hPa 0,0 mm W 279 3,2 km/h (1 Bft)
06.04.2013 16:06 5,1 C 77 % 1015,5 hPa 0,0 mm W 265 4,8 km/h (1 Bft)
06.04.2013 16:10 5,0 C 77 % 1015,6 hPa 0,0 mm W 261 6,4 km/h (2 Bft)
06.04.2013 16:15 4,9 C 77 % 1015,6 hPa 0,0 mm W 274 6,4 km/h (2 Bft)
06.04.2013 16:20 4,8 C 77 % 1015,6 hPa 0,0 mm W 274 3,2 km/h (1 Bft)
06.04.2013 16:25 4,8 C 77 % 1015,6 hPa 0,0 mm W 269 4,8 km/h (1 Bft)
06.04.2013 16:30 4,8 C 76 % 1015,7 hPa 0,0 mm W-SW 250 6,4 km/h (2 Bft)
06.04.2013 16:35 4,7 C 76 % 1015,7 hPa 0,0 mm W-SW 248 8,0 km/h (2 Bft)
06.04.2013 16:40 4,7 C 76 % 1015,7 hPa 0,0 mm W 275 6,4 km/h (2 Bft)
06.04.2013 16:45 4,8 C 76 % 1015,7 hPa 0,0 mm W-SW 255 8,0 km/h (2 Bft)
06.04.2013 16:50 4,7 C 76 % 1015,8 hPa 0,0 mm W-SW 250 6,4 km/h (2 Bft)
06.04.2013 16:55 4,7 C 77 % 1015,8 hPa 0,0 mm W-NW 289 6,4 km/h (2 Bft)
06.04.2013 17:00 4,7 C 77 % 1015,8 hPa 0,0 mm W-NW 289 3,2 km/h (1 Bft)
06.04.2013 17:05 4,7 C 76 % 1015,9 hPa 0,0 mm W 265 4,8 km/h (1 Bft)
06.04.2013 17:10 4,7 C 76 % 1016,0 hPa 0,0 mm W 273 6,4 km/h (2 Bft)
06.04.2013 17:15 4,6 C 76 % 1016,1 hPa 0,0 mm W 269 6,4 km/h (2 Bft)
06.04.2013 17:20 4,6 C 77 % 1016,1 hPa 0,0 mm W 266 6,4 km/h (2 Bft)
06.04.2013 17:25 4,6 C 76 % 1016,1 hPa 0,0 mm W 265 4,8 km/h (1 Bft)
06.04.2013 17:30 4,6 C 77 % 1016,1 hPa 0,0 mm W-SW 257 6,4 km/h (2 Bft)
06.04.2013 17:35 4,5 C 76 % 1016,1 hPa 0,0 mm W 281 6,4 km/h (2 Bft)
06.04.2013 17:40 4,5 C 76 % 1016,2 hPa 0,0 mm W 271 8,0 km/h (2 Bft)
06.04.2013 17:45 4,4 C 77 % 1016,2 hPa 0,0 mm W 263 4,8 km/h (1 Bft)
06.04.2013 17:50 4,4 C 77 % 1016,2 hPa 0,0 mm W 265 4,8 km/h (1 Bft)
06.04.2013 17:55 4,4 C 77 % 1016,2 hPa 0,0 mm W-SW 255 4,8 km/h (1 Bft)
06.04.2013 18:00 4,4 C 78 % 1016,3 hPa 0,0 mm W 265 3,2 km/h (1 Bft)
06.04.2013 18:05 4,3 C 78 % 1016,4 hPa 0,0 mm SW 236 4,8 km/h (1 Bft)
06.04.2013 18:10 4,3 C 78 % 1016,3 hPa 0,0 mm N 355 4,8 km/h (1 Bft)
06.04.2013 18:15 4,3 C 78 % 1016,4 hPa 0,0 mm NW 306 1,6 km/h (1 Bft)
06.04.2013 18:20 4,3 C 78 % 1016,4 hPa 0,0 mm W 277 3,2 km/h (1 Bft)
06.04.2013 18:25 4,3 C 78 % 1016,6 hPa 0,0 mm W 277 3,2 km/h (1 Bft)
06.04.2013 18:30 4,3 C 79 % 1016,7 hPa 0,0 mm W 277 1,6 km/h (1 Bft)
06.04.2013 18:35 4,3 C 79 % 1016,7 hPa 0,0 mm W 277 3,2 km/h (1 Bft)
06.04.2013 18:40 4,3 C 79 % 1016,7 hPa 0,0 mm W 277 1,6 km/h (1 Bft)
06.04.2013 18:45 4,2 C 79 % 1016,8 hPa 0,0 mm W 277 1,6 km/h (1 Bft)
06.04.2013 18:50 4,2 C 79 % 1016,8 hPa 0,0 mm W 277 1,6 km/h (1 Bft)
06.04.2013 18:55 4,2 C 79 % 1016,8 hPa 0,0 mm W 277 1,6 km/h (1 Bft)
06.04.2013 19:00 4,2 C 79 % 1016,9 hPa 0,0 mm W 277 3,2 km/h (1 Bft)
06.04.2013 19:05 4,2 C 79 % 1017,0 hPa 0,0 mm W 277 3,2 km/h (1 Bft)
06.04.2013 19:10 4,1 C 79 % 1016,9 hPa 0,0 mm W 277 0,0 km/h (0 Bft)
06.04.2013 19:15 4,1 C 80 % 1017,1 hPa 0,0 mm W 277 0,0 km/h (0 Bft)
06.04.2013 19:20 4,1 C 81 % 1017,0 hPa 0,0 mm W 277 0,0 km/h (0 Bft)
06.04.2013 19:25 4,1 C 81 % 1017,1 hPa 0,0 mm W 277 0,0 km/h (0 Bft)
06.04.2013 19:30 4,0 C 82 % 1017,1 hPa 0,0 mm W 277 0,0 km/h (0 Bft)
06.04.2013 19:35 4,0 C 82 % 1017,1 hPa 0,0 mm W 277 1,6 km/h (1 Bft)
06.04.2013 19:40 3,9 C 81 % 1017,2 hPa 0,0 mm W 277 0,0 km/h (0 Bft)
06.04.2013 19:45 3,9 C 82 % 1017,4 hPa 0,0 mm W 277 1,6 km/h (1 Bft)
06.04.2013 19:50 3,9 C 82 % 1017,5 hPa 0,0 mm W 277 1,6 km/h (1 Bft)
06.04.2013 19:55 3,8 C 82 % 1017,6 hPa 0,0 mm W 277 1,6 km/h (1 Bft)
06.04.2013 20:00 3,8 C 82 % 1017,6 hPa 0,0 mm W 277 0,0 km/h (0 Bft)
06.04.2013 20:05 3,8 C 83 % 1017,6 hPa 0,0 mm W 277 0,0 km/h (0 Bft)
06.04.2013 20:10 3,8 C 82 % 1017,6 hPa 0,0 mm W 277 1,6 km/h (1 Bft)
06.04.2013 20:15 3,7 C 82 % 1017,8 hPa 0,0 mm W 277 1,6 km/h (1 Bft)
06.04.2013 20:20 3,7 C 83 % 1017,9 hPa 0,0 mm W 277 0,0 km/h (0 Bft)
06.04.2013 20:25 3,6 C 83 % 1018,0 hPa 0,0 mm W 277 1,6 km/h (1 Bft)
06.04.2013 20:30 3,6 C 83 % 1018,0 hPa 0,0 mm W 277 0,0 km/h (0 Bft)
06.04.2013 20:35 3,6 C 83 % 1018,1 hPa 0,0 mm W 277 0,0 km/h (0 Bft)
06.04.2013 20:40 3,6 C 84 % 1018,2 hPa 0,0 mm W 277 0,0 km/h (0 Bft)
06.04.2013 20:45 3,5 C 84 % 1018,3 hPa 0,0 mm W 277 0,0 km/h (0 Bft)
06.04.2013 20:50 3,4 C 85 % 1018,3 hPa 0,0 mm W 277 0,0 km/h (0 Bft)
06.04.2013 20:55 3,4 C 85 % 1018,3 hPa 0,0 mm W 277 0,0 km/h (0 Bft)
06.04.2013 21:00 3,3 C 85 % 1018,4 hPa 0,0 mm W 277 0,0 km/h (0 Bft)
06.04.2013 21:05 3,3 C 85 % 1018,4 hPa 0,0 mm W 277 0,0 km/h (0 Bft)
06.04.2013 21:10 3,2 C 86 % 1018,5 hPa 0,0 mm W 277 0,0 km/h (0 Bft)
06.04.2013 21:15 3,1 C 87 % 1018,6 hPa 0,0 mm W 277 0,0 km/h (0 Bft)
06.04.2013 21:20 3,1 C 87 % 1018,6 hPa 0,0 mm W 277 0,0 km/h (0 Bft)
06.04.2013 21:25 2,9 C 87 % 1018,7 hPa 0,0 mm W 277 0,0 km/h (0 Bft)
06.04.2013 21:30 2,9 C 87 % 1018,7 hPa 0,0 mm W 277 0,0 km/h (0 Bft)
06.04.2013 21:35 2,9 C 87 % 1018,7 hPa 0,0 mm W 277 0,0 km/h (0 Bft)
06.04.2013 21:40 2,9 C 87 % 1018,9 hPa 0,0 mm W 277 0,0 km/h (0 Bft)
06.04.2013 21:45 2,9 C 87 % 1018,9 hPa 0,0 mm W 277 0,0 km/h (0 Bft)
06.04.2013 21:50 2,8 C 87 % 1018,9 hPa 0,0 mm W 277 0,0 km/h (0 Bft)
06.04.2013 21:55 2,9 C 87 % 1018,9 hPa 0,0 mm W 270 1,6 km/h (1 Bft)
06.04.2013 22:00 2,9 C 87 % 1019,0 hPa 0,0 mm N 0 0,0 km/h (0 Bft)
06.04.2013 22:05 2,9 C 87 % 1019,0 hPa 0,0 mm W 270 1,6 km/h (1 Bft)
06.04.2013 22:10 2,9 C 86 % 1019,0 hPa 0,0 mm W 270 1,6 km/h (1 Bft)
06.04.2013 22:15 2,9 C 86 % 1019,1 hPa 0,0 mm W 270 1,6 km/h (1 Bft)
06.04.2013 22:20 2,9 C 86 % 1019,1 hPa 0,0 mm W 277 0,0 km/h (0 Bft)
06.04.2013 22:25 2,8 C 86 % 1019,2 hPa 0,0 mm W 277 0,0 km/h (0 Bft)
06.04.2013 22:30 2,8 C 86 % 1019,1 hPa 0,0 mm W 277 0,0 km/h (0 Bft)
06.04.2013 22:35 2,8 C 87 % 1019,2 hPa 0,0 mm N 0 0,0 km/h (0 Bft)
06.04.2013 22:40 2,8 C 87 % 1019,2 hPa 0,0 mm N 0 0,0 km/h (0 Bft)
06.04.2013 22:45 2,8 C 87 % 1019,1 hPa 0,0 mm N 0 0,0 km/h (0 Bft)
06.04.2013 22:50 2,8 C 88 % 1019,2 hPa 0,0 mm N 0 0,0 km/h (0 Bft)
06.04.2013 22:55 2,7 C 88 % 1019,2 hPa 0,0 mm N 0 0,0 km/h (0 Bft)
06.04.2013 23:00 2,7 C 88 % 1019,1 hPa 0,0 mm N 0 0,0 km/h (0 Bft)
06.04.2013 23:05 2,7 C 88 % 1019,2 hPa 0,0 mm N 0 0,0 km/h (0 Bft)
06.04.2013 23:10 2,7 C 88 % 1019,3 hPa 0,0 mm N 0 0,0 km/h (0 Bft)
06.04.2013 23:15 2,7 C 88 % 1019,3 hPa 0,0 mm N 0 0,0 km/h (0 Bft)
06.04.2013 23:20 2,7 C 88 % 1019,2 hPa 0,0 mm W 270 1,6 km/h (1 Bft)
06.04.2013 23:25 2,7 C 88 % 1019,3 hPa 0,0 mm W 270 1,6 km/h (1 Bft)
06.04.2013 23:30 2,7 C 88 % 1019,3 hPa 0,0 mm N 0 0,0 km/h (0 Bft)
06.04.2013 23:35 2,6 C 88 % 1019,3 hPa 0,0 mm W 270 1,6 km/h (1 Bft)
06.04.2013 23:40 2,6 C 88 % 1019,4 hPa 0,0 mm W 270 1,6 km/h (1 Bft)
06.04.2013 23:45 2,6 C 88 % 1019,3 hPa 0,0 mm W 270 1,6 km/h (1 Bft)
06.04.2013 23:50 2,6 C 88 % 1019,4 hPa 0,0 mm W 277 1,6 km/h (1 Bft)
06.04.2013 23:55 2,6 C 88 % 1019,4 hPa 0,0 mm W 277 1,6 km/h (1 Bft)
_ Min-Zeit 09:20 15:25 00:00 - - - 05:25
Minimum _ 1,8 C 76 % 1010,7 hPa - - - 0,0 km/h (0 Bft)
_ Max-Zeit 15:55 01:35 23:40 00:00 - - 12:20
Maximum _ 5,1 C 92 % 1019,4 hPa 0,0 mm - - 12,9 km/h
W-NW (3 Bft)
Durchschnitt _ 3,0 C 86 % 1014,8 hPa #0,0 mm W - 4,1 km/h (1 Bft)